sat.trackr.live / text

‹ back to catalog

SL-4 R/B

NORAD 68753 · 2026-083A

ROCKET_BODY ACTIVE UNKNOWN

§ Identity

Operator
Country
CIS
Launch date
2026-04-16
Launch site
PLMSC
Launch vehicle
Mass (kg)
RCS (m²)

External: N2YO · Heavens-Above · Gunter

§ Orbital elements

Epoch: 2026-09-19T21:43:08.671008Z

Period
94.53 min
Inclination
98.2851°
Eccentricity
0.0060992
Mean motion
15.23294625 rev/d
Perigee alt
454.0 km
Apogee alt
537.8 km
Semi-major
6,874.0 km
B*
1.3597e-4
RAAN
63.8845°
Arg perigee
263.6333°
Mean anomaly
95.7953°
Rev number
2,374

§ Raw data

SL-4 R/B1 68753U 26083A   26262.90496147  .00003302  00000+0  13597-3 0  99912 68753  98.2851  63.8845 0060992 263.6333  95.7953 15.23294625 23743

JSON: /api/v1/satellites/68753 · /tle

For live sub-satellite position, see the globe view (requires WebGL).

§ Visibility from observer

Set your observer location to see the next 7 days of passes ≥ 10°. The values pass through the URL so the page stays shareable.

No JS? Fill the form by hand. The geolocation button needs JavaScript.